Regional Weather Roundup
Issued by NWS

Home | Current Version | Previous Version | Text Only | Print | Product List | Glossary On
Versions: 1 2 3 4 5 6 7 8 9 10 11 12 13 14 15 16 17 18 19 20 21 22 23 24 25 26 27 28 29 30 31 32 33 34 35 36 37 38 39 40 41 42 43 44 45 46 47 48 49 50
000
ASUS43 KFSD 191502
RWRSD

WEATHER ROUNDUP FOR SOUTH DAKOTA
NATIONAL WEATHER SERVICE SIOUX FALLS SD
1000 AM CDT SAT APR 19 2014

NOTE: "FAIR" INDICATES FEW OR NO CLOUDS BELOW 12,000 FEET WITH NO
SIGNIFICANT WEATHER AND/OR OBSTRUCTIONS TO VISIBILITY.


SDZ001>005-009-010-012>017-191600-
NORTHWEST AND NORTH CENTRAL SOUTH DAKOTA

CITY           SKY/WX    TMP DP  RH WIND       PRES   REMARKS
FAITH            N/A     52  23  32 NW17      29.99R
MOBRIDGE       MOSUNNY   54  27  35 NW15      29.93R
$$

SDZ012>016-024>037-041>051-057-063-072>074-191600-
SOUTHWEST AND SOUTH CENTRAL SOUTH DAKOTA

CITY           SKY/WX    TMP DP  RH WIND       PRES   REMARKS
RAPID CTY ARPT MOSUNNY   55  13  18 NW14      30.03R
PIERRE         MOSUNNY   51  33  50 W9        30.00R
CUSTER         MOSUNNY   49  11  21 VRB3      30.03S
ELLSWORTH AFB  MOSUNNY   54  15  21 N15       30.02S
PHILIP         MOSUNNY   57  24  28 NW13      30.02R
PINE RIDGE     CLOUDY    53  19  26 NE13      30.04S
WINNER         FAIR      55  33  43 NW16      30.01R
$$

SDZ004>011-016>023-039-040-191600-
NORTHEAST SOUTH DAKOTA

CITY           SKY/WX    TMP DP  RH WIND       PRES   REMARKS
ABERDEEN       PTSUNNY   53  37  54 W9        29.95R
WATERTOWN      CLOUDY    54  43  66 W7        29.93R
SISSETON         N/A     56  40  55 NW17      29.90R
$$

SDZ017-020-022-023-036>040-048>070-191600-
SOUTHEAST SOUTH DAKOTA

CITY           SKY/WX    TMP DP  RH WIND       PRES   REMARKS
SIOUX FALLS    MOSUNNY   61  42  49 S18G25    29.96S
HURON          CLOUDY    54  38  54 W15       29.98R
CHAMBERLAIN      N/A     54  36  50 NW10      30.01R
MITCHELL       CLOUDY    56  41  57 NW13      29.99R
YANKTON        MOSUNNY   63  45  51 SW17      29.99R
$$

ABBREVIATIONS USED IN REMARKS
   TC - TEMPERATURE IN CELSIUS
  WCI - WIND CHILL INDEX
   HX - HEAT INDEX
  VSB - VISIBILITY




USA.gov is the U.S. government's official web portal to all federal, state and local government web resources and services.